{"data":{"norad_id":68979,"intl_designator":"2026-099AE","name":"STARLINK-36248","alt_names":[],"object_type":"PAYLOAD","status":"ACTIVE","operator":null,"country":"US","launch_date":"2026-05-01","launch_site_code":"AFETR","launch_vehicle":null,"mission":null,"orbit_class":"UNKNOWN","rcs_meters":null,"size_class":null,"mass_kg":null,"dimensions":null,"purposes":["comms"],"wikipedia_slug":null,"has_3d_model":false,"image_url":null,"decayed_at":null,"tle_current":{"epoch":"2026-05-25T04:00:03.998880Z","epoch_age_seconds":54548,"freshness":"FRESH","line1":"1 68979U 26099AE  26145.16671295 -.01869477  00000+0 -28098-1 0  9991","line2":"2 68979  53.1588 270.1635 0001099  77.2739 168.6986 15.57597279  5016","mean_motion":15.57597279,"eccentricity":0.0001099,"inclination_deg":53.1588,"raan_deg":270.1635,"arg_perigee_deg":77.2739,"mean_anomaly_deg":168.6986,"bstar":-0.028098,"rev_number":501,"period_min":92.450084461145,"perigee_km":393.8688278224,"apogee_km":395.35747830604,"semimajor_km":6772.7501530642,"source":"CELESTRAK","updated_at":"2026-05-25T13:38:22.078584Z"}}}